Погода в Великой Белозёрке

Украина / Запорожская область     47°16′38″N   34°43′00″E
темп.,
°C
ветер,
м/с
пор.,
м/с
влажн.,
%
обл.,
%
осадки,
мм/ч
давл.,
гПа
погр.,
м
22 апреля, чт
чт2200:00+8юз48901 0.0 1019164
03:00+7юз34925 0.0 102067
06:00+6ююз33915 0.0 102144
09:00+12ююз33705 0.0 1022443
12:00+15ююз33543 0.2 10221354
15:00+17юз344498 0.9 10212174
18:00+14юз2362100 0.6 102170
21:00+10ююз35785 1.3 102282
23 апреля, пт
пт2300:00+8ююз48880 0.0 1022172
03:00+7ююз48910 0.0 1021152
06:00+7ю49896 0.0 1021171
09:00+13ююз6106588 0.0 1021597
12:00+16ююз794977 0.0 10201337
15:00+17ююз79435 0.0 10181909
18:00+16юз71050100 0.0 1016862
21:00+12юз5966100 0.0 1017344
24 апреля, сб
сб2400:00+10зюз3884100 0.1 1016304
03:00+7ссз5889100 0.6 1016415
06:00+7ссз48850 0.4 1018471
09:00+10зсз57660 0.4 1019903
12:00+13зсз710435 0.0 10192000
15:00+13зсз91242100 0.0 10192710
18:00+10зсз711473 0.1 10202041
21:00+6зсз345328 0.1 102266
25 апреля, вс
вс2500:00+5зсз34561 0.0 102362
03:00+4з33655 0.0 102340
06:00+3з236912 0.0 102331
09:00+8з344923 0.0 1023687
12:00+11зсз333751 0.0 10221638
15:00+13сз33344 0.0 10211877
18:00+12ссз113674 0.0 10201655
21:00+8ююв345151 0.0 102048
26 апреля, пн
пн2600:00+6юз37665 0.0 1020136
03:00+5зюз346540 0.0 101964
06:00+5зюз356667 0.0 101876
09:00+9з6968100 0.0 10181146
12:00+7сз4777100 0.1 1019887
15:00+12зсз67385 0.1 10182144
18:00+12зсз484183 0.0 10182335
21:00+8з465667 0.0 1019117